Flag for U.S.A. Weather past 2 weeks in Redlands, California, U.S.A.

Now
68 °F

Clear.


Feels Like: 68 °F
Forecast: 65 / 87 °F
Wind: No wind

Location: Riverside / March Air Force Base

Current Time: Sep 18, 2014 at 5:06:55 AM

Latest Report: Sep 18, 2014 at 3:58 AM


Visibility: 10 mi

Pressure: 29.78 "Hg

Humidity: 60%

Dew point: 53 °F

Location of RedlandsLocation

Historic Weather in Redlands — Graph

°F

Redlands temperature yesterday

Maximum temperature yesterday: 98 °F (at 1:58 PM)
Minimum temperature yesterday: 76 °F (at 11:58 PM)
Average temperature yesterday: 86 °F

Past Weeks' High & Low Weather Summary

 TemperatureHumidityPressure
High106 °F (Sep 15, 1:58 PM)100% (Sep 3, 3:58 AM)29.98 "Hg (Sep 3, 3:58 AM)
Low59 °F (Sep 10, 4:58 AM)13% (Sep 13, 11:58 AM)29.68 "Hg (Sep 14, 3:58 PM)
Average81 °F45%29.81 "Hg
* Reported Sep 3 3:58 AM — Sep 18 3:58 AM, Redlands, Weather by CustomWeather, © 2014

Note: Actual official high and low records may vary slightly from our data, if they occured in-between our weather recording intervals... More about our weather records

Advertising

Redlands weather history for previous 24 hours

 ConditionsComfort  
Time TempWeatherWind HumidityBarometerVisibility
3:58 AM
Sep 18
68 °FClear.No wind60%29.78 "Hg10 mi
2:58 AM70 °FClear.No wind57%29.78 "Hg10 mi
1:58 AM72 °FClear.2 mph53%29.79 "Hg10 mi
12:58 AM73 °FClear.No wind52%29.79 "Hg10 mi
11:58 PM
Sep 17
76 °FClear.No wind49%29.79 "Hg10 mi
10:58 PM77 °FClear.1 mph37%29.79 "Hg10 mi
9:58 PM77 °FClear.3 mph37%29.78 "Hg10 mi
8:58 PM81 °FClear.1 mph33%29.77 "Hg10 mi
7:58 PM83 °FClear.8 mph34%29.75 "Hg10 mi
6:58 PM87 °FSunny.10 mph36%29.72 "Hg10 mi
5:58 PM91 °FSunny.16 mph34%29.70 "Hg10 mi
4:58 PM94 °FSunny.16 mph31%29.68 "Hg10 mi
3:58 PM96 °FSunny.15 mph30%29.69 "Hg10 mi
2:58 PM98 °FSunny.12 mph30%29.70 "Hg10 mi
1:58 PM98 °FSunny.9 mph29%29.71 "Hg10 mi
12:58 PM96 °FSunny.7 mph32%29.73 "Hg10 mi
11:58 AM94 °FSunny.6 mph35%29.76 "Hg10 mi
10:58 AM91 °FSunny.8 mph40%29.77 "Hg10 mi
9:58 AM89 °FSunny.5 mph43%29.78 "Hg10 mi
8:58 AM85 °FSunny.No wind50%29.78 "Hg10 mi
7:58 AM82 °FSunny.1 mph57%29.77 "Hg10 mi
6:58 AM78 °FClear.2 mph63%29.76 "Hg10 mi
5:58 AM78 °FClear.2 mph63%29.75 "Hg10 mi
Weather by CustomWeather, © 2014

See weather overviewHow to use our weather pages